TimeCDT,TemperatureF,Dew PointF,Humidity,Sea Level PressureIn,VisibilityMPH,Wind Direction,Wind SpeedMPH,Gust SpeedMPH,PrecipitationIn,Events,Conditions,WindDirDegrees,DateUTC
12:15 AM,67.6,61.0,79,29.83,10.0,SE,8.1,-,N/A,,Clear,130,2013-04-29 05:15:00
12:35 AM,67.6,60.8,79,29.88,10.0,Calm,Calm,-,N/A,,Clear,0,2013-04-29 05:35:00
12:55 AM,67.6,60.6,78,29.89,10.0,Calm,Calm,-,N/A,,Clear,0,2013-04-29 05:55:00
1:15 AM,66.9,61.9,84,29.89,10.0,North,3.5,-,N/A,,Clear,350,2013-04-29 06:15:00
1:35 AM,66.2,61.7,85,29.90,10.0,Calm,Calm,-,N/A,,Clear,0,2013-04-29 06:35:00
1:55 AM,65.5,62.2,89,29.89,10.0,Calm,Calm,-,N/A,,Scattered Clouds,0,2013-04-29 06:55:00
2:15 AM,65.3,62.6,91,29.89,10.0,Calm,Calm,-,N/A,,Mostly Cloudy,0,2013-04-29 07:15:00
2:35 AM,64.8,62.2,92,29.90,10.0,Calm,Calm,-,N/A,,Overcast,0,2013-04-29 07:35:00
2:55 AM,65.3,62.8,92,29.91,10.0,Calm,Calm,-,N/A,,Overcast,0,2013-04-29 07:55:00
3:15 AM,65.7,63.1,92,29.90,10.0,Calm,Calm,-,N/A,,Overcast,0,2013-04-29 08:15:00
3:35 AM,65.5,62.8,91,29.91,10.0,North,3.5,-,N/A,,Scattered Clouds,350,2013-04-29 08:35:00
3:55 AM,65.3,62.6,91,29.90,10.0,NNW,3.5,-,N/A,,Scattered Clouds,330,2013-04-29 08:55:00
4:15 AM,65.5,62.6,90,29.90,10.0,Calm,Calm,-,N/A,,Mostly Cloudy,0,2013-04-29 09:15:00
4:35 AM,65.3,62.6,91,29.90,10.0,Calm,Calm,-,N/A,,Mostly Cloudy,0,2013-04-29 09:35:00
4:55 AM,64.6,62.1,92,29.89,10.0,Calm,Calm,-,N/A,,Scattered Clouds,0,2013-04-29 09:55:00
5:15 AM,64.4,61.9,92,29.89,10.0,Calm,Calm,-,N/A,,Clear,0,2013-04-29 10:15:00
5:35 AM,63.9,61.7,93,29.89,7.0,Calm,Calm,-,N/A,,Clear,0,2013-04-29 10:35:00
5:55 AM,63.5,61.3,93,29.89,7.0,Calm,Calm,-,N/A,,Clear,0,2013-04-29 10:55:00
6:15 AM,63.5,61.7,94,29.89,7.0,NE,4.6,-,N/A,,Clear,50,2013-04-29 11:15:00
6:35 AM,63.3,61.2,93,29.89,10.0,Calm,Calm,-,N/A,,Clear,0,2013-04-29 11:35:00
6:55 AM,62.6,60.6,93,29.89,7.0,Calm,Calm,-,N/A,,Clear,0,2013-04-29 11:55:00
7:15 AM,62.1,60.1,93,29.89,5.0,Calm,Calm,-,N/A,,Scattered Clouds,0,2013-04-29 12:15:00
7:35 AM,63.5,61.7,94,29.89,7.0,Calm,Calm,-,N/A,,Mostly Cloudy,0,2013-04-29 12:35:00
7:55 AM,64.9,63.0,93,29.89,10.0,Calm,Calm,-,N/A,,Mostly Cloudy,0,2013-04-29 12:55:00
8:15 AM,66.6,63.7,90,29.89,10.0,ENE,3.5,-,N/A,,Mostly Cloudy,60,2013-04-29 13:15:00
8:55 AM,69.4,62.8,79,29.89,10.0,East,3.5,-,N/A,,Mostly Cloudy,90,2013-04-29 13:55:00
9:15 AM,71.4,62.4,73,29.89,10.0,ESE,4.6,-,N/A,,Mostly Cloudy,120,2013-04-29 14:15:00
9:35 AM,72.3,61.9,70,29.89,10.0,SE,3.5,-,N/A,,Mostly Cloudy,140,2013-04-29 14:35:00
9:55 AM,72.5,62.8,71,29.89,10.0,ESE,3.5,-,N/A,,Overcast,110,2013-04-29 14:55:00
10:15 AM,72.7,62.1,69,29.89,10.0,SE,3.5,-,N/A,,Overcast,130,2013-04-29 15:15:00
10:35 AM,72.9,61.3,67,29.89,10.0,ESE,5.8,-,N/A,,Overcast,110,2013-04-29 15:35:00
10:55 AM,74.3,61.2,63,29.89,10.0,SE,5.8,-,N/A,,Overcast,140,2013-04-29 15:55:00
11:15 AM,73.6,61.2,65,29.89,10.0,SSE,5.8,-,N/A,,Overcast,160,2013-04-29 16:15:00
11:35 AM,74.3,60.3,61,29.90,10.0,SSE,4.6,-,N/A,,Overcast,150,2013-04-29 16:35:00
11:55 AM,74.3,60.3,61,29.90,10.0,SE,4.6,-,N/A,,Overcast,130,2013-04-29 16:55:00
12:15 PM,74.3,60.3,61,29.90,10.0,Calm,Calm,-,N/A,,Overcast,0,2013-04-29 17:15:00
12:35 PM,74.5,60.4,61,29.89,10.0,SSE,5.8,-,N/A,,Overcast,160,2013-04-29 17:35:00
12:55 PM,74.8,61.0,62,29.89,10.0,East,5.8,-,N/A,,Overcast,100,2013-04-29 17:55:00
1:15 PM,75.6,61.2,61,29.87,10.0,ESE,4.6,-,N/A,,Overcast,110,2013-04-29 18:15:00
1:35 PM,76.3,61.5,60,29.87,10.0,SSE,6.9,-,N/A,,Overcast,150,2013-04-29 18:35:00
1:55 PM,77.2,61.0,57,29.86,10.0,SE,4.6,-,N/A,,Overcast,140,2013-04-29 18:55:00
2:15 PM,75.9,61.0,60,29.85,10.0,SSE,5.8,-,N/A,,Overcast,150,2013-04-29 19:15:00
2:35 PM,75.2,61.5,62,29.85,10.0,SSE,5.8,-,N/A,,Overcast,160,2013-04-29 19:35:00
2:55 PM,75.2,61.7,63,29.84,10.0,SE,5.8,-,N/A,,Overcast,140,2013-04-29 19:55:00
3:15 PM,75.6,61.9,62,29.83,10.0,SE,4.6,-,N/A,,Overcast,130,2013-04-29 20:15:00
3:35 PM,76.1,62.1,62,29.82,10.0,SE,4.6,-,N/A,,Overcast,140,2013-04-29 20:35:00
3:55 PM,76.5,62.2,61,29.82,10.0,ESE,3.5,-,N/A,,Overcast,120,2013-04-29 20:55:00
4:15 PM,77.4,63.0,61,29.81,10.0,SE,6.9,-,N/A,,Overcast,130,2013-04-29 21:15:00
4:35 PM,77.0,63.0,62,29.80,10.0,SE,6.9,-,N/A,,Overcast,140,2013-04-29 21:35:00
4:55 PM,76.5,62.8,62,29.80,10.0,SSE,5.8,-,N/A,,Overcast,150,2013-04-29 21:55:00
5:15 PM,76.5,63.0,63,29.79,10.0,SSE,8.1,-,N/A,,Overcast,150,2013-04-29 22:15:00
5:35 PM,77.0,63.1,62,29.79,10.0,SE,6.9,-,N/A,,Overcast,140,2013-04-29 22:35:00
5:55 PM,77.0,62.8,61,29.78,10.0,SE,6.9,-,N/A,,Overcast,130,2013-04-29 22:55:00
6:15 PM,77.2,63.0,61,29.78,10.0,SSE,9.2,-,N/A,,Overcast,150,2013-04-29 23:15:00
6:35 PM,76.5,63.3,64,29.78,10.0,SSE,6.9,-,N/A,,Overcast,150,2013-04-29 23:35:00
6:55 PM,76.5,63.0,63,29.77,10.0,SE,6.9,-,N/A,,Overcast,140,2013-04-29 23:55:00
7:15 PM,76.3,63.0,63,29.77,10.0,SE,5.8,-,N/A,,Overcast,130,2013-04-30 00:15:00
7:35 PM,75.7,63.1,65,29.77,10.0,SSE,4.6,-,N/A,,Overcast,150,2013-04-30 00:35:00
7:55 PM,75.2,63.9,68,29.77,10.0,South,4.6,-,N/A,,Overcast,190,2013-04-30 00:55:00
8:15 PM,74.3,64.0,70,29.77,10.0,South,3.5,-,N/A,,Overcast,180,2013-04-30 01:15:00
8:35 PM,73.8,64.4,72,29.78,10.0,Calm,Calm,-,N/A,,Overcast,0,2013-04-30 01:35:00
8:55 PM,73.2,64.4,74,29.78,10.0,SSE,3.5,-,N/A,,Overcast,150,2013-04-30 01:55:00
9:15 PM,72.5,64.6,76,29.78,10.0,SSE,3.5,-,N/A,,Mostly Cloudy,160,2013-04-30 02:15:00
9:35 PM,72.1,64.9,78,29.79,10.0,Calm,Calm,-,N/A,,Overcast,0,2013-04-30 02:35:00
9:55 PM,72.5,65.3,78,29.80,10.0,Calm,Calm,-,N/A,,Overcast,0,2013-04-30 02:55:00
10:15 PM,72.5,65.7,79,29.81,10.0,Calm,Calm,-,N/A,,Overcast,0,2013-04-30 03:15:00
10:35 PM,72.5,65.8,80,29.81,10.0,Calm,Calm,-,N/A,,Overcast,0,2013-04-30 03:35:00
10:55 PM,72.5,65.8,80,29.81,10.0,Calm,Calm,-,N/A,,Overcast,0,2013-04-30 03:55:00
11:15 PM,72.5,65.7,79,29.82,10.0,Calm,Calm,-,N/A,,Overcast,0,2013-04-30 04:15:00
11:35 PM,72.5,65.8,80,29.82,10.0,Calm,Calm,-,N/A,,Overcast,0,2013-04-30 04:35:00
11:55 PM,71.8,66.2,83,29.81,10.0,Calm,Calm,-,N/A,,Mostly Cloudy,0,2013-04-30 04:55:00